Regional Weather Roundup
Issued by NWS

Home | Current Version | Previous Version | Graphics & Text | Print | Product List | Glossary On
Versions: 1 2 3 4 5 6 7 8 9 10 11 12 13 14 15 16 17 18 19 20 21 22 23 24 25 26 27 28 29 30 31 32 33 34 35 36 37 38 39 40 41 42 43 44 45 46 47 48 49 50
000
ASUS43 KMKX 311921
RWRWI

WISCONSIN REGIONAL WEATHER ROUNDUP
NATIONAL WEATHER SERVICE MILWAUKEE/SULLIVAN WI
200 PM CDT MON AUG 31 2015

NOTE: "FAIR" INDICATES FEW OR NO CLOUDS BELOW 12,000 FEET WITH NO
SIGNIFICANT WEATHER AND/OR OBSTRUCTIONS TO VISIBILITY.

WIZ001-002-006>008-014>016-023>028-312000-
NORTHWEST WISCONSIN

CITY           SKY/WX    TMP DP  RH WIND       PRES   REMARKS
SUPERIOR ARPT  SUNNY     81  68  64 SW16G22   29.84F HX  84
ASHLAND        SUNNY     82  67  60 SW14      29.89F HX  84
HAYWARD        SUNNY     76  66  71 S14       29.94F
SIREN          SUNNY     80  66  63 S16       29.92S HX  82
CUMBERLAND     CLOUDY    77  68  73 S14       29.96S
RICE LAKE      CLOUDY    76  68  76 S12       29.98S
CHETEK         CLOUDY   N/A N/A N/A S13       29.97S
LADYSMITH      CLOUDY    75  68  78 S12       30.00S
EAU CLAIRE     CLOUDY    76  68  76 S10       29.97F
MENOMONIE      PTSUNNY   80  70  71 SE9       29.96F HX  84
NEW RICHMOND   PTSUNNY   80  69  70 SW17G23   29.94S HX  83
OSCEOLA        PTSUNNY   80  73  78 S14       29.95F HX  84
$$

WIZ003>005-009-010-017-018-312000-
NORTH CENTRAL WISCONSIN

CITY           SKY/WX    TMP DP  RH WIND       PRES   REMARKS
MANITOWISH WTR SUNNY     78  64  63 S10       29.98S HX  80
ARBOR VITAE    SUNNY     80  66  63 S10       29.99F HX  82
WOODRUFF       SUNNY     80  66  63 S10       29.99F HX  82
RHINELANDER    SUNNY     77  64  64 SW10      30.02S
EAGLE RIVER    SUNNY     78  60  53 SW8       29.99S
LAND O LAKES   SUNNY     82  60  47 SW9       29.99S HX  82
PHILLIPS       MOSUNNY   74  66  75 S12       29.99S
TOMAHAWK       SUNNY     76  65  69 S3        30.01F
MEDFORD        CLOUDY    72  67  85 S8        30.02S
MERRILL        MOSUNNY   75  67  76 SW8       30.02S
$$

WIZ029-030-035-036-043>047-312000-
CENTRAL WISCONSIN

CITY           SKY/WX    TMP DP  RH WIND       PRES   REMARKS
WAUSAU         CLOUDY    74  65  73 S8        30.01F
MOSINEE        CLOUDY    73  68  83 SW6       30.04S
MARSHFIELD     CLOUDY    74  66  76 SW9       30.02F
STEVENS POINT  CLOUDY    74  65  75 S7        30.03S
WAUPACA        MOSUNNY   80  69  67 S5        30.02F HX  83
WAUTOMA        MOSUNNY   81  68  65 S8        30.02F HX  83
WISC RAPIDS    MOSUNNY   78  66  66 SW10      30.03F HX  80
CAMP DOUGLAS   MOSUNNY   79  77  94 S9        30.01F HX  83
$$

WIZ011>013-019>022-031-037>040-048>050-312000-
NORTHEAST WISCONSIN

CITY           SKY/WX    TMP DP  RH WIND       PRES   REMARKS
ANTIGO         CLOUDY    72  66  80 SW9       30.03S
SHAWANO        CLOUDY    74  67  77 SW5       30.02F
OCONTO         SUNNY     77  68  73 SW9       30.00F
STURGEON BAY   SUNNY     75  64  69 SW10G16   30.03F
GREEN BAY      MOSUNNY   78  67  68 SW10      30.01F HX  80
MANITOWOC      MOSUNNY   78  66  66 MISG      30.03F HX  80
APPLETON       PTSUNNY   75  64  69 S9        30.02F
CLINTONVILLE   CLOUDY    73  66  78 SW6       30.02S
OSHKOSH        MOSUNNY   76  66  71 S7        30.03F
$$

WIZ032>034-041-042-053>061-312000-
SOUTHWEST WISCONSIN

CITY           SKY/WX    TMP DP  RH WIND       PRES   REMARKS
LA CROSSE      MOSUNNY   83  70  64 S12       29.98F HX  87
SPARTA         MOSUNNY   82  66  58 S8        30.01F HX  84
VIROQUA          N/A     80  69  69 S10       30.03S HX  83
BOSCOBEL       MOSUNNY   85  70  60 S6        30.02S HX  89
PRAIRIE DU CHI MOSUNNY   83  68  60 S6        30.00F HX  86
PLATTEVILLE    MOSUNNY   81  72  74 S10       30.04S HX  85
$$

WIZ056-057-062-063-064-067-068-312000-
SOUTH CENTRAL WISCONSIN

CITY           SKY/WX    TMP DP  RH WIND       PRES   REMARKS
REEDSBURG      MOSUNNY   80  70  71 S7        30.03S HX  83
BARABOO/DELLS  PTSUNNY   81  66  60 S6        30.03F HX  83
LONE ROCK      MOSUNNY   83  69  62 SW9G16    30.03S HX  86
MINERAL POINT  MOSUNNY   82  68  61 S8        30.05F HX  85
MADISON        PTSUNNY   81  68  64 S12       30.04F HX  84
MIDDLETON      PTSUNNY   83  67  57 S10       30.05S HX  86
WATERTOWN      MOSUNNY   79  69  70 SW6       30.05F HX  82
MONROE         MOSUNNY   81  68  65 S7        30.05F HX  83
JANESVILLE     PTSUNNY   82  68  61 S5        30.05F HX  85
$$

WIZ051-052-058>065-066-070>072-312000-
SOUTHEAST WISCONSIN

CITY           SKY/WX    TMP DP  RH WIND       PRES   REMARKS
MILWAUKEE      MOSUNNY   79  66  64 SW9       30.05F HX  81
WAUKESHA       MOSUNNY   77  66  69 S6        30.07F
MILWAUKEE/TIMM PTSUNNY   77  63  61 W6        30.06F
RACINE         SUNNY     77  66  68 E8        30.07S
BURLINGTON     MOSUNNY   79  66  63 SW3       30.06S HX  81
KENOSHA        MOSUNNY   81  68  64 S6        30.06F HX  84
FOND DU LAC    MOSUNNY   77  67  71 SW8       30.04F
SHEBOYGAN      MOSUNNY   76  67  73 SW10      30.04S
WEST BEND      SUNNY     77  64  65 CALM      30.05F
JUNEAU         PTSUNNY   77  67  70 S8        30.07S
$$

LSZ147-162-312000-
LAKE SUPERIOR

STATION/POSITION TIME  TEMP    WIND        PRES    WAVE
                       AIR SEA DIR/SP/G            HT/PER
                 (UTC) (F)     (DEG/KT/KT) (MB)    (FT/S)
W MID LAKE BUOY  1850   62 57  170/  6/  8 1011.4F   1
DEVILS ISLAND    1900   68      10/  2/  3 1011.2F
PORT WING        1800   79     190/ 14/ 18 1011.2F
SAXON HARBOR     1800   81     200/  9/ 16 1012.2S
$$

LMZ867-665-643>646-312000-
LAKE MICHIGAN

STATION/POSITION TIME  TEMP    WIND        PRES    WAVE
                       AIR SEA DIR/SP/G            HT/PER
                 (UTC) (F)     (DEG/KT/KT) (MB)    (FT/S)
CHAMBERS ISLAND  1800   68     170/  6/ 11 1015.9F
S GREEN BAY BUOY 1700   65 63  220/  6/  8 1018.4F
N MID LAKE BUOY  1850   63 65  200/ 16/ 17 1015.8F   2/ 4
NORTHPORT PIER   1800   72     170/  4/  9 1015.9F
KEWAUNEE LAKESHO 1800   53     170/ 11/ 12 1016.0F
SHEBOYGAN LAKESH 1900   67     170/ 20/ 21 1017.0F
PORT WASHINGTON  1800   65     200/  3/  7 1018.6F
ATWATER BUOY     1900   58 51  180/  8/  8 1018.9F
MILWAUKEE LAKESH 1810   62     110/  1/  4   N/A
S MID LAKE BUOY  1850   70 72  160/  4/  4 1017.8F   0
KENOSHA   LAKESH 1900   67     170/  9/ 11 1017.6S
$$

TC  - TEMPERATURE IN CELSIUS
VSB - VISIBILITY IN STATUTE MILES
WCI - WIND CHILL INDEX
HX  - HEAT INDEX



USA.gov is the U.S. government's official web portal to all federal, state and local government web resources and services.